Vinton, IA

2:30 PM CDT on June 25, 2017 (GMT -0500)
Vinton-Veterans Memorial

Weather History for KVTI - September, 2013

Change the Weather History Date:

Monday, September 30, 2013

  Actual Average Record
Temperature  
Mean Temperature 65 °F -  
Max Temperature 79 °F 71 °F 93 °F (2002)
Min Temperature 51 °F 45 °F 25 °F (1984)
Growing Degree Days 15 (Base 50)    
Moisture  
Dew Point 46 °F    
Average Humidity 56    
Maximum Humidity 79    
Minimum Humidity 25    
Precipitation  
Precipitation 0.00 in - - ()
Sea Level Pressure  
Sea Level Pressure 29.87 in    
Wind  
Wind Speed 8 mph (South)    
Max Wind Speed 16 mph    
Max Gust Speed 26 mph    
Visibility 10 miles    
Events      
Averages and records for this station are not official NWS values.
T = Trace of Precipitation, MM = Missing Value Source: NWS Daily Summary

Daily Weather History Graph

Daily Weather History Graph

Search for Another Location

Airport or City:

Trip Planner

Search our weather history database for the weather conditions in past years. The results will help you decide how hot, cold, wet, or windy it might be!

Date:

Astronomy

Sep. 30, 2013 Rise Set
Actual Time 7:04 AM CDT 6:50 PM CDT
Civil Twilight 6:36 AM CDT 7:18 PM CDT
Nautical Twilight 6:03 AM CDT 7:51 PM CDT
Astronomical Twilight 5:30 AM CDT 8:24 PM CDT
Moon 2:37 AM CDT (9/30) 4:25 PM CDT (9/30)
Length of Visible Light 12h 42m
Length of Day
11h 46m
Waning Crescent, 19% of the Moon is Illuminated
Sep 30
Waning Crescent
Oct 4
New
Oct 11
First Quarter
Oct 18
Full
Oct 26
Last Quarter

Hourly Weather History & Observations

Time (CDT) Temp. Dew Point Humidity Pressure Visibility Wind Dir Wind Speed Gust Speed Precip Events Conditions
12:15 AM 56.7 °F 45.9 °F 67% 29.95 in 10.0 mi South 6.9 mph - N/A   Clear
12:35 AM 54.1 °F 45.1 °F 72% 29.95 in 10.0 mi South 4.6 mph - N/A   Clear
12:55 AM 52.2 °F 44.8 °F 76% 29.95 in 10.0 mi South 4.6 mph - N/A   Clear
1:15 AM 51.8 °F 44.4 °F 76% 29.95 in 10.0 mi South 4.6 mph - N/A   Clear
1:35 AM 51.8 °F 43.9 °F 74% 29.95 in 10.0 mi South 4.6 mph - N/A   Clear
1:55 AM 51.8 °F 44.8 °F 77% 29.96 in 10.0 mi South 3.5 mph - N/A   Clear
2:15 AM 51.8 °F 45.0 °F 77% 29.95 in 10.0 mi South 5.8 mph - N/A   Clear
2:35 AM 51.8 °F 44.8 °F 77% 29.94 in 10.0 mi SSE 6.9 mph - N/A   Clear
2:55 AM 51.8 °F 44.2 °F 75% 29.94 in 10.0 mi South 3.5 mph - N/A   Clear
3:15 AM 51.8 °F 44.8 °F 77% 29.93 in 10.0 mi South 3.5 mph - N/A   Clear
3:35 AM 51.8 °F 45.5 °F 79% 29.94 in 10.0 mi South 4.6 mph - N/A   Clear
3:55 AM 51.8 °F 44.8 °F 77% 29.94 in 10.0 mi South 3.5 mph - N/A   Clear
4:15 AM 51.8 °F 44.8 °F 77% 29.93 in 10.0 mi SSE 5.8 mph - N/A   Clear
4:35 AM 51.8 °F 44.6 °F 76% 29.94 in 10.0 mi South 6.9 mph - N/A   Clear
4:55 AM 51.8 °F 44.6 °F 76% 29.94 in 10.0 mi South 3.5 mph - N/A   Clear
5:15 AM 51.8 °F 44.8 °F 77% 29.93 in 10.0 mi South 6.9 mph - N/A   Clear
5:35 AM 51.8 °F 44.6 °F 76% 29.92 in 10.0 mi South 6.9 mph - N/A   Clear
5:55 AM 51.8 °F 44.2 °F 75% 29.92 in 10.0 mi South 6.9 mph - N/A   Clear
6:15 AM 51.8 °F 44.6 °F 76% 29.92 in 10.0 mi South 5.8 mph - N/A   Clear
6:35 AM 51.8 °F 44.2 °F 75% 29.92 in 10.0 mi South 6.9 mph - N/A   Clear
6:55 AM 51.8 °F 44.6 °F 76% 29.92 in 10.0 mi South 8.1 mph - N/A   Clear
7:15 AM 51.8 °F 44.4 °F 76% 29.93 in 10.0 mi South 6.9 mph - N/A   Clear
7:35 AM 52.9 °F 45.0 °F 74% 29.94 in 10.0 mi South 5.8 mph - N/A   Clear
7:55 AM 52.9 °F 45.0 °F 74% 29.94 in 10.0 mi South 5.8 mph - N/A   Clear
8:15 AM 54.1 °F 45.5 °F 73% 29.93 in 10.0 mi South 8.1 mph - N/A   Clear
8:35 AM 55.0 °F 45.7 °F 71% 29.92 in 10.0 mi South 9.2 mph - N/A   Clear
8:55 AM 56.7 °F 46.2 °F 68% 29.92 in 10.0 mi South 8.1 mph - N/A   Clear
9:15 AM 59.2 °F 45.7 °F 61% 29.92 in 10.0 mi South 9.2 mph - N/A   Clear
9:35 AM 61.7 °F 45.3 °F 55% 29.92 in 10.0 mi South 11.5 mph - N/A   Clear
9:55 AM 63.0 °F 43.7 °F 49% 29.91 in 10.0 mi South 11.5 mph 18.4 mph N/A   Clear
10:15 AM 64.6 °F 42.4 °F 44% 29.92 in 10.0 mi South 10.4 mph - N/A   Clear
10:35 AM 66.7 °F 42.8 °F 42% 29.91 in 10.0 mi South 11.5 mph 16.1 mph N/A   Clear
10:55 AM 69.3 °F 45.0 °F 42% 29.92 in 10.0 mi South 11.5 mph - N/A   Clear
11:15 AM 69.3 °F 44.2 °F 40% 29.91 in 10.0 mi South 8.1 mph - N/A   Clear
11:35 AM 71.8 °F 45.9 °F 39% 29.91 in 10.0 mi South 10.4 mph 16.1 mph N/A   Clear
11:55 AM 71.8 °F 44.4 °F 37% 29.90 in 10.0 mi South 16.1 mph 19.6 mph N/A   Clear
12:15 PM 71.8 °F 44.1 °F 37% 29.89 in 10.0 mi SSW 12.7 mph 23.0 mph N/A   Clear
12:35 PM 71.8 °F 44.8 °F 38% 29.88 in 10.0 mi SSW 11.5 mph 21.9 mph N/A   Clear
12:55 PM 74.3 °F 45.7 °F 36% 29.88 in 10.0 mi South 11.5 mph 23.0 mph N/A   Clear
1:15 PM 76.5 °F 46.8 °F 35% 29.87 in 10.0 mi South 11.5 mph 21.9 mph N/A   Clear
1:35 PM 77.0 °F 45.9 °F 33% 29.85 in 10.0 mi South 10.4 mph 20.7 mph N/A   Clear
1:55 PM 77.0 °F 44.8 °F 32% 29.84 in 10.0 mi South 13.8 mph 18.4 mph N/A   Clear
2:15 PM 77.0 °F 43.2 °F 30% 29.83 in 10.0 mi SSW 12.7 mph 20.7 mph N/A   Clear
2:35 PM 78.8 °F 42.8 °F 28% 29.83 in 10.0 mi SSW 15.0 mph 21.9 mph N/A   Clear
2:55 PM 79.3 °F 41.2 °F 26% 29.82 in 10.0 mi SSW 15.0 mph 21.9 mph N/A   Clear
3:15 PM 79.3 °F 40.8 °F 25% 29.82 in 10.0 mi South 15.0 mph 26.5 mph N/A   Clear
3:35 PM 79.3 °F 40.8 °F 25% 29.81 in 10.0 mi South 13.8 mph 19.6 mph N/A   Clear
3:55 PM 79.3 °F 41.5 °F 26% 29.80 in 10.0 mi South 15.0 mph 19.6 mph N/A   Clear
4:15 PM 79.3 °F 41.9 °F 26% 29.79 in 10.0 mi South 12.7 mph 23.0 mph N/A   Clear
4:35 PM 79.3 °F 42.4 °F 27% 29.79 in 10.0 mi South 12.7 mph 20.7 mph N/A   Clear
4:55 PM 79.3 °F 42.8 °F 27% 29.79 in 10.0 mi South 12.7 mph 19.6 mph N/A   Clear
5:15 PM 79.3 °F 43.2 °F 28% 29.78 in 10.0 mi South 12.7 mph 19.6 mph N/A   Clear
5:35 PM 78.1 °F 43.7 °F 29% 29.78 in 10.0 mi South 10.4 mph 24.2 mph N/A   Clear
5:55 PM 77.0 °F 44.6 °F 32% 29.78 in 10.0 mi South 11.5 mph 18.4 mph N/A   Clear
6:15 PM 77.0 °F 45.3 °F 32% 29.78 in 10.0 mi South 9.2 mph - N/A   Clear
6:35 PM 76.1 °F 46.0 °F 34% 29.77 in 10.0 mi South 10.4 mph - N/A   Clear
6:55 PM 71.8 °F 46.0 °F 40% 29.77 in 10.0 mi South 8.1 mph - N/A   Clear
7:15 PM 71.8 °F 48.2 °F 43% 29.77 in 10.0 mi South 6.9 mph - N/A   Clear
7:35 PM 71.8 °F 50.0 °F 46% 29.77 in 10.0 mi South 8.1 mph - N/A   Clear
7:55 PM 69.4 °F 48.7 °F 48% 29.77 in 10.0 mi South 9.2 mph - N/A   Clear
8:15 PM 69.3 °F 50.2 °F 51% 29.78 in 10.0 mi South 8.1 mph - N/A   Clear
8:35 PM 66.7 °F 50.0 °F 55% 29.79 in 10.0 mi South 6.9 mph - N/A   Clear
8:55 PM 65.5 °F 50.4 °F 58% 29.79 in 10.0 mi South 8.1 mph - N/A   Clear
9:15 PM 64.8 °F 50.9 °F 61% 29.79 in 10.0 mi South 8.1 mph - N/A   Clear
9:35 PM 64.4 °F 51.6 °F 63% 29.80 in 10.0 mi South 6.9 mph - N/A   Clear
9:55 PM 63.0 °F 52.0 °F 67% 29.80 in 10.0 mi South 4.6 mph - N/A   Clear
10:15 PM 63.0 °F 52.5 °F 69% 29.81 in 10.0 mi South 4.6 mph - N/A   Clear
10:35 PM 62.2 °F 52.7 °F 71% 29.81 in 10.0 mi South 5.8 mph - N/A   Clear
10:55 PM 61.7 °F 52.9 °F 73% 29.82 in 10.0 mi South 5.8 mph - N/A   Clear
11:15 PM 61.7 °F 53.4 °F 74% 29.81 in 10.0 mi SSE 6.9 mph - N/A   Clear
11:35 PM 61.7 °F 53.8 °F 75% 29.82 in 10.0 mi South 6.9 mph - N/A   Clear
11:55 PM 61.7 °F 54.1 °F 76% 29.82 in 10.0 mi South 6.9 mph - N/A   Clear